星链-34361 (STARLINK-34361)

导读

STARLINK-34361是美国于2025年6月18日发射的星链卫星,星链是SpaceX打造的低轨卫星互联网星座项目,旨在为全球提供高速宽带互联网服务,尤其覆盖偏远、网络基础设施匮乏地区。该卫星入轨后,将进一步扩充星链星座的卫星规模,提升全球网络覆盖能力与服务稳定性。

Basic Information
目录编号:
64450
目录名称:
STARLINK-34361
国际标识:
2025-130N
轨道中心:
EARTH
卫星名称:
星链-34361
卫星全名:
星链-34361 (STARLINK-34361)
卫星状态:
在轨 (已飞行443 天)
发射日期:
2025-06-18 UTC
国别 :
美国 (US)
星等 :
--
Orbit Information
数据来源 国际轨道数据
星历时间: 2026-09-04T00:13:39+0800
13小时前
查看轨道信息
半长轴: 6840.818km
偏心率: 0.0001083
轨道倾角: 53.159°
近地点辐角 96.650°
升交点赤经 338.258°
平近点角 263.463°
近地点: 461.94km
远地点: 463.422km
周期: 93.847分钟
每日圈数: 15.344075
Detailed Information
固有亮度:
5
最大亮度:
2.5
卫星平台:
Starlink V1.0
覆盖范围:
全球
运营商:
太空探索技术公司
运营商所在国:
美国
制造商(研发单位):
太空探索技术公司
制造商所在国:
美国
使用方式:
暂无
Satellite Introduction
Starlink 计划是 SpaceX 推出的全球卫星互联网项目,通过发射低轨道卫星,为全球尤其是偏远地区提供高速、低延迟的互联网服务。自 2019 年起,Starlink 已部署数千颗卫星,旨在缩小全球数字鸿沟,推动互联网普及。该项目还为军事、航空等行业提供通信支持,带来广泛经济效益。
2D Orbit Map
3D Orbit Map
Orbit Altitude Analysis Chart
Orbit Inclination Analysis Chart
Orbit Comprehensive Analysis Chart
View Comprehensive Chart
Conjunction Data List
Event ID Objects TCA Miss Dist (km) Collision Risk Probability Collision Risk Index (CRI) Action
CDM_260904-095406-445006-984721
2026-09-04T
09:54:52+0000
1.540 km
极远距离
3.802417E-6 低风险 0.47
CDM_260904-165606-445006-984721
2026-09-04T
16:56:56+0000
1.740 km
极远距离
2.638076E-6 低风险 0.43
CDM_260904-082106-445006-984721
2026-09-04T
08:21:04+0000
2.117 km
极远距离
1.599183E-6 低风险 0.39
CDM_260904-183006-445006-984721
2026-09-04T
18:30:44+0000
2.268 km
极远距离
1.378777E-6 低风险 0.38